Temp
4 4 3 3 3 2 2 3 3 3 3 3 3 3 3 3 3 3 2 3 2 2 3 4 4 3 2 3 2 1 0 -0 -1 -1 1 1 -0 0 1 0 0 0 -0
4 3 2 1 1 2 1 1 2 2 2 2 3 3 3 2 2 2 2 2 2 2 2 2 3 3 1 -3 -1 -0 0 -1 -1 -2 -2 -3 -1 -1 -1 -1 -0 -1 -1
2 2 1 1 1 1 1 0 -0 -0 1 1 2 2 1 1 1 0 0 1 2 1 1 2 2 2 -1 -3 -2 -3 -3 -2 -4 -4 -3 -2 -1 -2 -2 -2 -1 -1 -1
1 -0 -1 -1 -0 -1 -1 -1 -1 -1 -1 -1 -0 -0 -1 -0 -1 -1 -1 -1 -1 -1 -1 -1 0 0 -0 -1 -4 -5 -4 -4 -5 -4 -4 -3 -2 -2 -2 -2 -2 -1 -2
-2 -2 -2 -2 -2 -2 -3 -3 -2 -2 -3 -2 -2 -2 -2 -1 -2 -2 -2 -2 -3 -3 -3 -2 -3 -3 -3 -4 -4 -5 -6 -6 -5 -4 -3 -4 -4 -3 -2 -2 -2 -2 -2
-2 -3 -3 -3 -3 -3 -3 -3 -3 -4 -4 -4 -3 -3 -3 -3 -3 -4 -3 -4 -4 -5 -5 -4 -4 -5 -8 -7 -7 -6 -6 -6 -6 -6 -5 -4 -3 -3 -3 -3 -2 -2 -2
-3 -3 -3 -4 -4 -4 -4 -4 -4 -4 -4 -5 -4 -4 -5 -5 -4 -5 -5 -6 -7 -7 -7 -7 -8 -8 -7 -7 -7 -6 -6 -6 -5 -4 -4 -3 -3 -3 -3 -2 -2 -2 -2
-3 -4 -4 -4 -3 -3 -4 -5 -5 -5 -6 -6 -7 -7 -7 -7 -8 -7 -7 -7 -7 -8 -8 -8 -7 -7 -6 -7 -7 -6 -5 -4 -4 -4 -4 -4 -3 -3 -2 -2 -2 -2 -2
-5 -4 -4 -4 -3 -4 -5 -5 -6 -6 -6 -6 -7 -7 -7 -8 -9 -8 -7 -8 -7 -7 -7 -7 -7 -7 -6 -6 -5 -5 -4 -4 -4 -4 -3 -3 -3 -2 -2 -3 -3 -3 -2
-4 -5 -5 -6 -5 -6 -5 -5 -6 -6 -6 -7 -7 -7 -7 -8 -8 -8 -8 -7 -7 -8 -7 -7 -6 -5 -5 -5 -5 -5 -4 -4 -3 -3 -3 -3 -3 -3 -3 -3 -3 -3 -3
-4 -4 -5 -6 -6 -6 -6 -6 -6 -7 -7 -7 -7 -7 -7 -7 -7 -7 -7 -8 -8 -7 -7 -6 -6 -6 -6 -5 -5 -4 -4 -3 -3 -3 -3 -3 -3 -3 -3 -3 -3 -3 -4
-4 -5 -5 -6 -6 -6 -6 -6 -7 -7 -7 -7 -7 -8 -8 -8 -8 -8 -7 -7 -6 -5 -5 -5 -5 -5 -4 -4 -3 -3 -3 -3 -3 -3 -3 -3 -3 -3 -3 -4 -3 -3 -3
-4 -5 -5 -6 -6 -6 -6 -6 -7 -8 -7 -7 -6 -6 -7 -7 -7 -7 -7 -6 -5 -5 -5 -5 -5 -4 -4 -3 -3 -3 -3 -3 -3 -3 -3 -3 -3 -4 -4 -4 -4 -5 -5
-4 -5 -5 -5 -6 -6 -6 -6 -6 -7 -7 -7 -7 -6 -6 -6 -6 -6 -6 -6 -5 -5 -5 -4 -3 -3 -3 -3 -3 -3 -3 -3 -3 -3 -4 -4 -4 -4 -5 -5 -5 -4 -4
-4 -4 -5 -5 -5 -5 -5 -5 -6 -6 -6 -5 -5 -5 -5 -5 -5 -5 -5 -5 -4 -4 -4 -3 -3 -3 -3 -3 -3 -3 -3 -3 -3 -4 -4 -4 -4 -5 -5 -5 -6 -6 -6
-4 -4 -5 -5 -4 -6 -6 -5 -5 -5 -5 -5 -5 -5 -5 -5 -5 -5 -4 -4 -4 -4 -3 -3 -3 -3 -3 -3 -3 -3 -3 -3 -3 -4 -5 -6 -6 -6 -7 -8 -8 -8 -8
-3 -3 -4 -6 -6 -6 -6 -7 -6 -6 -6 -5 -5 -5 -5 -5 -4 -4 -4 -4 -3 -3 -3 -3 -3 -3 -3 -4 -4 -5 -6 -7 -7 -7 -7 -7 -7 -8 -8 -8 -8 -8 -8
-4 -3 -5 -5 -6 -6 -6 -6 -5 -6 -6 -6 -5 -5 -4 -4 -4 -4 -3 -3 -3 -3 -3 -3 -3 -4 -5 -6 -6 -6 -6 -6 -6 -7 -7 -7 -7 -6 -6 -7 -8 -8 -8
-4 -4 -4 -4 -6 -5 -5 -5 -5 -6 -5 -5 -5 -5 -5 -4 -4 -3 -3 -3 -3 -3 -3 -3 -3 -4 -5 -6 -6 -6 -6 -6 -6 -7 -7 -8 -8 -7 -7 -8 -8 -8 -8
-3 -4 -4 -5 -5 -6 -5 -5 -5 -5 -5 -5 -5 -5 -5 -4 -4 -4 -3 -3 -3 -3 -4 -6 -6 -6 -6 -6 -6 -6 -6 -6 -6 -7 -7 -7 -8 -8 -8 -8 -7 -7 -8
-5 -5 -4 -4 -5 -5 -5 -5 -5 -5 -4 -4 -4 -4 -5 -5 -5 -5 -4 -4 -4 -4 -4 -6 -6 -6 -6 -6 -6 -6 -6 -7 -6 -7 -7 -7 -7 -8 -7 -8 -8 -8 -9
-4 -5 -5 -5 -5 -5 -5 -5 -5 -5 -5 -4 -4 -4 -5 -4 -5 -5 -5 -5 -5 -5 -5 -6 -6 -6 -6 -6 -6 -6 -6 -7 -7 -7 -7 -7 -7 -8 -8 -8 -9 -9 -10
-4 -4 -4 -4 -4 -5 -5 -5 -4 -5 -5 -5 -4 -4 -4 -5 -5 -4 -5 -5 -6 -6 -6 -6 -6 -6 -6 -5 -5 -6 -6 -7 -7 -7 -8 -8 -8 -9 -9 -9 -9 -10 -10
-4 -4 -4 -4 -4 -4 -4 -5 -5 -5 -5 -4 -5 -5 -5 -4 -5 -5 -5 -5 -6 -6 -6 -6 -6 -6 -6 -6 -6 -7 -7 -8 -8 -8 -9 -9 -9 -9 -9 -10 -10 -10 -10
-4 -4 -4 -4 -4 -4 -4 -4 -4 -4 -5 -5 -5 -5 -5 -5 -4 -4 -5 -6 -5 -5 -5 -5 -5 -6 -6 -6 -6 -7 -8 -8 -10 -10 -9 -9 -10 -10 -10 -10 -10 -10 -11
-4 -4 -4 -4 -4 -4 -4 -4 -4 -4 -4 -3 -5 -5 -5 -5 -5 -4 -4 -5 -5 -5 -5 -5 -5 -6 -6 -6 -7 -7 -8 -9 -9 -9 -10 -10 -10 -10 -11 -10 -11 -11 -10
Height
3090 3089 3088 3087 3085 3083 3082 3082 3082 3082 3080 3081 3080 3082 3083 3085 3087 3089 3089 3092 3093 3094 3099 3099 3104 3110 3110 3114 3118 3122 3122 3127 3124 3120 3130 3139 3140 3140 3144 3143 3144 3145 3147
3084 3082 3080 3079 3077 3076 3074 3073 3072 3071 3072 3072 3070 3069 3069 3069 3072 3074 3077 3079 3081 3082 3083 3086 3087 3087 3091 3101 3102 3109 3108 3115 3110 3122 3123 3130 3134 3137 3139 3138 3139 3140 3140
3077 3075 3072 3070 3069 3067 3065 3063 3062 3062 3061 3062 3061 3061 3059 3060 3060 3062 3063 3065 3067 3068 3072 3073 3075 3076 3079 3087 3090 3097 3096 3097 3109 3112 3121 3123 3129 3132 3134 3133 3134 3134 3135
3071 3069 3067 3065 3063 3060 3059 3058 3057 3056 3054 3054 3053 3053 3052 3053 3054 3055 3056 3056 3058 3059 3062 3062 3064 3068 3073 3071 3077 3082 3086 3092 3101 3109 3117 3121 3123 3126 3127 3128 3128 3129 3130
3066 3063 3062 3062 3059 3056 3055 3053 3052 3051 3049 3048 3048 3047 3047 3048 3049 3050 3049 3050 3051 3054 3056 3057 3060 3064 3070 3075 3080 3083 3088 3090 3099 3109 3114 3117 3119 3119 3122 3123 3123 3123 3123
3062 3060 3058 3057 3056 3054 3052 3050 3047 3046 3045 3044 3044 3043 3042 3042 3043 3043 3044 3046 3049 3051 3051 3053 3058 3062 3067 3073 3079 3085 3091 3094 3100 3106 3111 3113 3114 3115 3116 3117 3117 3117 3117
3057 3056 3055 3053 3052 3049 3048 3046 3044 3042 3042 3040 3039 3039 3039 3039 3039 3040 3041 3044 3047 3049 3049 3054 3058 3064 3069 3073 3080 3086 3090 3094 3099 3103 3106 3108 3110 3111 3112 3111 3111 3113 3111
3052 3051 3050 3048 3046 3043 3042 3041 3040 3039 3039 3038 3038 3037 3037 3038 3039 3041 3042 3046 3050 3052 3055 3058 3062 3068 3073 3078 3082 3086 3089 3093 3098 3099 3102 3104 3105 3105 3105 3106 3106 3106 3105
3047 3047 3045 3042 3040 3038 3037 3036 3037 3037 3037 3037 3037 3038 3038 3039 3039 3040 3042 3046 3051 3055 3058 3062 3065 3070 3073 3078 3082 3085 3088 3090 3094 3095 3097 3098 3099 3100 3100 3101 3102 3099 3098
3043 3042 3040 3038 3037 3036 3034 3032 3033 3034 3035 3034 3034 3036 3037 3038 3039 3041 3043 3048 3054 3056 3059 3063 3068 3073 3075 3077 3080 3082 3085 3088 3090 3091 3093 3094 3096 3096 3096 3094 3095 3093 3092
3040 3039 3038 3038 3037 3036 3034 3032 3032 3033 3033 3034 3034 3035 3037 3040 3042 3044 3048 3051 3055 3059 3063 3066 3070 3073 3075 3077 3079 3081 3083 3085 3086 3088 3088 3089 3090 3090 3091 3090 3089 3086 3083
3039 3038 3038 3038 3038 3037 3036 3036 3035 3037 3039 3039 3040 3041 3043 3045 3047 3050 3052 3055 3059 3063 3063 3067 3070 3073 3074 3076 3077 3079 3080 3082 3083 3084 3084 3086 3086 3085 3083 3080 3076 3072 3070
3040 3039 3038 3037 3037 3038 3038 3038 3040 3040 3042 3042 3043 3045 3046 3048 3050 3052 3054 3057 3060 3062 3063 3065 3067 3069 3071 3073 3075 3077 3079 3080 3080 3080 3080 3080 3079 3077 3075 3073 3069 3065 3063
3039 3040 3039 3039 3038 3039 3039 3038 3039 3041 3041 3042 3043 3045 3046 3048 3050 3053 3055 3057 3058 3060 3062 3063 3065 3067 3069 3071 3072 3074 3075 3075 3076 3074 3074 3073 3072 3069 3066 3063 3060 3057 3053
3038 3039 3039 3039 3039 3040 3040 3040 3040 3041 3041 3042 3043 3044 3046 3048 3050 3053 3054 3055 3057 3058 3060 3062 3064 3066 3067 3068 3069 3069 3070 3070 3070 3068 3067 3066 3064 3062 3059 3055 3051 3047 3043
3036 3037 3038 3038 3038 3039 3039 3040 3041 3041 3043 3043 3044 3045 3045 3047 3049 3051 3053 3054 3055 3057 3059 3060 3062 3063 3064 3064 3064 3064 3063 3063 3062 3060 3058 3057 3055 3053 3050 3047 3045 3042 3037
3033 3034 3034 3036 3038 3040 3039 3038 3039 3040 3041 3042 3044 3045 3046 3046 3048 3050 3051 3052 3054 3055 3056 3058 3059 3059 3060 3061 3061 3061 3061 3060 3059 3057 3056 3053 3050 3046 3044 3040 3037 3032 3026
3029 3030 3031 3032 3035 3037 3037 3036 3037 3037 3040 3040 3041 3043 3044 3045 3046 3048 3049 3050 3052 3053 3054 3055 3055 3055 3056 3056 3057 3057 3057 3056 3055 3053 3050 3046 3043 3038 3033 3029 3026 3020 3014
3025 3026 3027 3029 3032 3034 3035 3034 3036 3037 3036 3038 3038 3039 3041 3041 3042 3044 3045 3046 3048 3048 3048 3049 3050 3050 3050 3051 3052 3051 3050 3048 3046 3042 3040 3036 3032 3027 3023 3018 3012 3007 2999
3020 3022 3022 3024 3025 3027 3030 3032 3032 3034 3036 3037 3039 3036 3036 3036 3037 3038 3039 3040 3041 3042 3043 3045 3047 3047 3047 3047 3046 3045 3041 3037 3035 3032 3029 3024 3020 3015 3010 3004 2998 2992 2987
3016 3016 3017 3018 3021 3023 3024 3026 3028 3030 3031 3033 3034 3036 3036 3032 3032 3034 3032 3032 3034 3035 3035 3037 3039 3041 3042 3041 3040 3036 3031 3026 3023 3021 3017 3013 3008 3002 2998 2992 2988 2981 2975
3011 3011 3011 3011 3013 3015 3017 3018 3020 3022 3022 3026 3028 3030 3028 3027 3028 3031 3033 3033 3032 3032 3034 3032 3033 3034 3033 3030 3025 3021 3021 3018 3013 3010 3007 3002 2997 2993 2988 2983 2977 2972 2968
3001 3001 3003 3003 3005 3006 3008 3009 3010 3012 3013 3016 3019 3021 3018 3017 3019 3020 3022 3025 3024 3025 3025 3020 3019 3021 3019 3013 3012 3012 3010 3007 3002 2998 2994 2991 2986 2982 2978 2975 2970 2966 2962
2990 2993 2995 2995 2994 2994 2991 3000 3003 3005 3006 3008 3008 3009 3012 3007 3008 3011 3012 3014 3015 3013 3010 3010 3010 3008 3006 3004 3000 2999 2995 2994 2990 2987 2984 2980 2977 2974 2970 2967 2964 2961 2958
2977 2979 2982 2983 2986 2987 2986 2989 2992 2994 2995 2994 2996 2997 3000 3003 3000 3000 3000 3000 2999 3000 3000 2999 2998 2996 2994 2992 2988 2986 2984 2981 2979 2977 2974 2971 2969 2966 2964 2961 2959 2956 2953
2962 2964 2965 2970 2972 2975 2976 2976 2979 2983 2983 2979 2983 2986 2990 2988 2986 2987 2991 2991 2992 2990 2989 2988 2986 2984 2982 2978 2978 2973 2972 2971 2970 2968 2966 2964 2962 2960 2957 2955 2953 2950 2947
Wind_Speed
32 29 28 32 36 35 30 31 27 33 27 32 40 51 43 49 55 51 49 61 67 55 61 60 71 62 47 47 50 48 42 31 18 34 31 21 22 24 24 24 21 21 19
32 32 31 29 32 32 30 27 26 25 27 29 25 35 44 45 47 49 53 54 59 61 67 67 62 64 49 41 43 44 46 39 38 29 28 20 21 23 19 17 17 20 25
30 32 32 28 28 30 28 24 23 23 24 27 27 28 29 36 35 37 40 45 53 50 54 63 67 65 53 48 47 36 33 33 30 31 26 18 19 16 15 15 18 20 18
29 27 28 27 23 24 21 22 21 21 20 22 24 22 21 23 25 30 33 35 39 43 48 50 57 58 64 58 51 45 40 30 19 18 18 19 14 15 18 19 15 14 14
24 25 21 20 17 17 19 19 20 22 22 21 20 22 24 25 26 27 28 29 30 33 36 37 35 36 35 29 26 20 21 16 14 15 13 15 17 15 14 14 12 14 15
22 21 22 19 13 13 15 20 20 19 19 19 20 21 21 23 22 22 23 23 21 22 25 23 22 22 19 18 17 16 16 16 16 15 15 19 16 10 11 14 13 10 14
24 22 21 16 17 17 21 20 17 19 19 19 16 13 13 14 18 20 20 19 18 18 19 18 21 21 22 22 19 14 12 10 13 14 14 11 13 13 11 9 10 14 18
19 18 21 24 25 21 17 17 16 16 12 11 11 6 3 7 13 16 19 17 17 18 21 22 16 14 14 14 13 14 15 14 15 13 12 14 13 11 10 13 15 20 23
18 18 20 24 19 15 15 14 14 15 14 15 13 9 12 14 19 17 17 16 15 16 21 20 15 13 14 15 14 14 14 13 13 14 14 13 12 13 15 17 19 24 26
17 17 16 11 11 15 12 9 9 13 13 13 13 11 13 13 19 16 19 20 26 24 18 11 10 11 11 12 12 12 12 11 10 11 12 12 13 14 17 20 23 27 29
13 10 6 9 10 9 5 3 4 3 2 5 9 11 13 13 14 15 16 21 17 11 12 12 11 10 12 12 12 11 10 10 10 11 11 13 16 19 22 25 27 28 30
6 4 3 6 8 4 6 6 13 12 14 13 14 14 14 13 13 12 11 12 12 13 12 9 6 7 7 7 7 8 9 11 11 13 15 17 21 24 28 31 33 36 36
4 1 4 4 6 7 6 12 12 10 10 11 11 12 13 13 12 12 11 12 12 11 9 7 8 8 7 6 7 8 11 13 15 18 20 23 26 29 30 31 32 33 36
2 2 1 5 4 5 4 4 4 6 11 12 13 13 10 10 9 9 8 9 10 11 11 9 7 6 7 8 9 10 12 15 18 20 23 25 26 28 30 33 36 39 43
4 6 9 9 9 7 8 8 8 6 7 6 6 6 5 3 5 6 7 7 8 9 9 8 7 7 8 9 11 13 14 17 19 21 23 25 26 29 32 33 36 39 42
9 13 12 13 8 9 8 9 10 10 9 8 8 7 8 9 9 9 11 11 10 8 7 7 7 8 9 10 12 15 17 20 22 24 25 26 29 31 32 33 35 38 44
14 14 13 9 8 15 16 12 12 10 11 11 11 11 12 11 9 11 11 12 12 11 10 10 10 11 11 12 14 15 15 16 19 22 25 28 31 34 36 37 41 45 47
15 15 15 14 14 18 14 14 13 12 8 7 9 10 12 14 13 13 13 14 13 13 13 14 15 14 14 15 16 17 18 20 23 26 29 31 34 35 40 45 47 49 54
15 15 16 17 16 15 15 18 14 13 15 9 11 17 14 16 16 16 17 16 17 18 18 19 19 19 18 18 20 21 24 26 29 34 37 38 41 44 47 49 51 52 53
16 16 16 17 15 17 18 18 18 16 18 18 16 21 21 19 18 19 21 21 22 22 20 18 19 20 22 23 24 26 30 34 38 41 40 44 49 49 51 50 45 48 53
18 20 21 20 20 21 20 20 20 20 21 21 20 20 22 28 29 23 17 19 20 23 22 21 22 22 22 24 25 27 35 43 44 44 44 48 47 45 41 45 49 44 40
25 23 25 24 24 23 24 24 23 26 27 24 24 23 29 31 30 24 23 23 23 21 25 26 24 23 27 29 37 42 40 42 45 46 47 44 40 42 42 39 36 33 30
34 31 26 31 33 29 28 29 28 27 24 25 26 27 32 33 34 33 27 27 26 24 24 34 38 37 39 44 43 40 41 42 45 45 38 38 39 36 34 31 29 28 28
36 34 35 32 27 39 34 28 29 31 33 32 32 31 31 36 25 25 35 37 31 32 38 37 34 38 40 39 42 41 43 42 40 35 34 34 32 31 29 28 27 26 26
47 47 38 33 32 35 26 27 30 33 35 34 36 40 33 33 38 43 38 41 40 33 37 37 37 38 40 43 45 44 43 37 28 33 32 29 29 28 27 28 28 27 26
43 35 34 34 32 35 33 41 36 37 41 39 42 42 40 44 42 45 39 34 39 43 43 43 44 45 42 46 45 44 37 28 28 28 27 27 27 26 26 26 25 26 27
Wind_Direction
303 298 290 280 276 276 278 276 277 277 271 268 260 255 253 248 263 269 257 255 247 257 253 252 241 238 230 232 230 224 225 231 216 246 244 243 245 253 253 257 262 266 266
297 296 294 287 277 276 275 272 268 263 260 260 259 250 244 245 247 250 252 252 249 256 256 254 236 226 221 217 220 223 218 219 236 241 256 259 250 250 249 248 257 267 278
301 298 298 302 282 278 282 286 281 274 259 251 254 257 250 250 256 257 256 257 258 256 252 246 245 235 215 219 220 218 220 223 217 236 242 237 244 239 241 255 271 279 282
306 299 297 300 288 283 277 272 272 275 272 267 262 258 251 259 264 262 257 257 259 257 256 253 242 244 233 218 203 206 212 217 211 226 245 235 228 240 261 273 275 273 280
303 303 303 289 281 279 283 285 281 281 281 280 271 263 262 257 258 261 260 256 250 245 240 236 231 225 222 217 210 193 189 189 194 210 220 246 248 259 263 263 272 288 296
300 293 293 279 277 291 297 297 292 285 284 283 283 273 264 258 251 247 246 241 231 214 211 202 186 161 139 138 143 158 166 172 197 209 229 239 246 256 269 278 284 287 297
300 289 274 259 282 290 291 296 287 280 280 286 285 282 264 246 232 211 181 163 156 149 152 145 148 152 157 158 162 145 151 188 209 219 227 231 248 260 266 275 282 285 289
293 282 275 281 297 297 277 271 275 275 268 280 270 269 229 212 166 172 154 161 160 156 150 150 138 129 136 153 179 193 196 199 207 210 226 240 247 250 257 268 279 288 292
290 276 283 294 294 305 297 275 257 253 255 263 239 214 209 187 193 196 180 157 157 155 134 134 146 174 184 187 188 192 199 209 217 221 225 228 237 251 268 282 295 295 298
286 278 281 279 299 319 316 266 237 234 257 248 242 225 214 218 215 205 171 149 143 143 149 157 174 169 180 187 198 208 214 222 218 218 227 241 261 279 287 290 290 294 298
297 282 235 248 267 293 323 62 143 171 217 210 185 175 192 171 141 145 151 147 141 159 161 168 176 187 197 198 206 210 214 221 229 242 261 277 287 289 290 291 291 295 298
321 312 265 252 237 110 132 151 101 107 109 109 106 102 111 118 124 130 140 145 158 175 156 159 187 219 203 202 205 218 229 245 261 270 278 285 290 296 302 306 308 307 310
48 284 307 278 211 195 180 133 125 128 134 142 141 145 148 151 153 155 164 177 181 183 178 191 210 217 214 219 236 249 256 264 275 282 288 293 296 301 303 301 301 305 304
237 258 346 49 102 178 191 164 186 202 181 182 178 167 168 164 162 186 201 210 205 189 191 197 203 216 231 245 259 268 275 281 285 289 288 292 296 296 298 304 304 304 304
210 255 265 262 249 234 223 221 220 230 241 226 208 210 179 187 202 199 212 214 212 197 203 211 221 242 258 272 283 288 288 285 286 289 292 294 295 299 303 305 306 306 305
228 246 245 249 251 291 254 245 224 222 233 237 239 231 211 212 205 209 218 221 228 224 223 241 251 263 278 288 300 306 306 303 302 303 305 302 300 301 300 299 295 292 292
238 236 232 220 212 234 256 242 251 242 243 246 245 232 238 244 241 231 231 236 237 237 236 244 253 260 269 278 279 277 272 269 273 280 284 292 298 300 297 294 290 290 295
236 240 229 224 221 241 243 260 251 243 254 272 255 246 241 245 245 243 238 237 240 242 245 251 260 266 267 269 271 273 279 281 285 290 292 291 289 289 288 289 293 296 299
233 238 242 225 234 235 244 261 249 235 258 273 286 276 274 257 252 251 252 252 252 253 256 259 265 269 264 265 272 278 282 284 282 276 279 282 283 289 297 301 302 301 301
240 237 239 241 244 235 235 235 238 237 237 232 233 275 285 275 267 267 265 261 257 258 257 251 267 278 280 283 286 284 274 272 277 275 284 289 299 301 302 303 303 302 301
249 243 242 240 228 236 241 235 233 233 238 239 244 242 246 267 270 280 291 284 276 278 272 263 258 261 273 277 275 273 271 274 284 292 294 299 300 300 302 301 302 303 302
256 244 250 253 248 235 234 232 239 235 225 234 240 243 253 257 261 254 251 251 265 274 267 269 270 263 256 257 256 264 279 280 286 293 296 298 299 298 300 303 303 305 306
263 268 263 251 248 245 235 240 242 237 247 245 235 236 245 248 256 260 236 249 254 252 253 252 254 269 271 275 285 285 284 286 289 293 296 299 298 301 302 304 306 308 303
246 244 258 258 256 242 237 238 239 240 238 243 250 242 242 264 247 252 262 264 247 242 256 270 276 278 280 284 285 286 286 289 290 296 301 296 297 300 301 304 306 300 304
247 258 252 248 248 265 273 251 241 241 247 255 250 241 237 237 256 259 241 258 230 267 284 279 281 284 279 286 287 290 289 291 299 299 293 296 296 296 297 296 294 301 305
238 243 230 239 244 248 252 233 236 247 249 242 253 254 243 235 247 246 265 255 264 280 281 284 285 283 281 282 282 281 286 298 292 288 291 292 291 292 294 297 301 302 302